Weather History for Jefferson, NC

Change the Weather History Date:

Tuesday, January 20, 2009

  Actual Average Record
Temperature  
Mean Temperature 14 °F -  
Max Temperature 19 °F 41 °F 62 °F (1988)
Min Temperature 10 °F 22 °F -11 °F (1985)
Degree Days  
Heating Degree Days 50    
Moisture  
Dew Point 8 °F    
Average Humidity 75    
Maximum Humidity 93    
Minimum Humidity 62    
Precipitation  
Precipitation 0.00 in - - ()
Sea Level Pressure  
Sea Level Pressure 29.60 in    
Wind  
Wind Speed 13 mph (NW)    
Max Wind Speed 20 mph    
Max Gust Speed 33 mph    
Visibility 9 miles    
Events Snow    
Averages and records for this station are not official NWS values.
T = Trace of Precipitation, MM = Missing Value Source: NWS Daily Summary

Daily Weather History Graph

Daily Weather History Graph

Search for Another Location

Airport:

Trip Planner

Search our weather history database for the weather conditions in past years. The results will help you decide how hot, cold, wet, or windy it might be!

Date:

Astronomy

Jan. 20, 2009 Rise Set
Actual Time 7:34 AM EST 5:39 PM EST
Civil Twilight 7:06 AM EST 6:07 PM EST
Nautical Twilight 6:35 AM EST 6:38 PM EST
Astronomical Twilight 6:04 AM EST 7:09 PM EST
Moon 3:10 AM EST (1/20) 12:50 PM EST (1/20)
Length of Visible Light 11h 00m
Length of Day
10h 04m
Waning Crescent, 26% of the Moon is Illuminated
Jan 20
Waning Crescent
Jan 26
New
Feb 2
First Quarter
Feb 9
Full
Feb 16
Last Quarter

Hourly Weather History & Observations

Time (EST) Temp. Windchill Dew Point Humidity Pressure Visibility Wind Dir Wind Speed Gust Speed Precip Events Conditions
12:01 AM 19.4 °F 7.9 °F 17.6 °F 93% 29.53 in 10.0 mi North 10.4 mph 20.7 mph N/A   Overcast
12:21 AM 17.6 °F 2.7 °F 15.8 °F 93% 29.52 in 10.0 mi NNW 16.1 mph 20.7 mph N/A   Overcast
12:41 AM 17.6 °F 5.0 °F 14.0 °F 86% 29.51 in 10.0 mi NNW 11.5 mph 19.6 mph N/A   Overcast
1:01 AM 17.6 °F 5.7 °F 14.0 °F 86% 29.51 in 10.0 mi NNW 10.4 mph 18.4 mph N/A   Overcast
1:21 AM 17.6 °F 4.3 °F 14.0 °F 86% 29.50 in 10.0 mi NNW 12.7 mph 24.2 mph N/A Snow Light Snow
1:41 AM 17.6 °F 3.7 °F 12.2 °F 79% 29.51 in 10.0 mi NNW 13.8 mph 21.9 mph N/A Snow Light Snow
2:01 AM 17.6 °F 4.3 °F 12.2 °F 79% 29.51 in 7.0 mi NNW 12.7 mph 19.6 mph N/A Snow Light Snow
2:21 AM 15.8 °F 1.4 °F 12.2 °F 86% 29.51 in 10.0 mi NNW 13.8 mph - N/A Snow Light Snow
2:41 AM 15.8 °F 2.1 °F 10.4 °F 79% 29.52 in 10.0 mi NNW 12.7 mph 21.9 mph N/A Snow Light Snow
3:01 AM 15.8 °F 3.4 °F 10.4 °F 79% 29.51 in 10.0 mi NNW 10.4 mph 19.6 mph N/A   Overcast
3:21 AM 15.8 °F 2.1 °F 10.4 °F 79% 29.51 in 10.0 mi NNW 12.7 mph 19.6 mph N/A   Overcast
3:41 AM 15.8 °F 2.7 °F 10.4 °F 79% 29.51 in 10.0 mi NNW 11.5 mph 17.3 mph N/A   Overcast
4:01 AM 15.8 °F 2.1 °F 10.4 °F 79% 29.51 in 10.0 mi NNW 12.7 mph 21.9 mph N/A   Overcast
4:21 AM 15.8 °F 3.4 °F 10.4 °F 79% 29.51 in 10.0 mi NW 10.4 mph 20.7 mph N/A   Overcast
4:41 AM 15.8 °F 2.1 °F 10.4 °F 79% 29.51 in 10.0 mi NNW 12.7 mph 18.4 mph N/A Snow Light Snow
5:02 AM 12.2 °F -4.3 °F 8.6 °F 85% 29.51 in 10.0 mi NW 16.1 mph 21.9 mph N/A   Overcast
5:21 AM 12.2 °F -3.1 °F 6.8 °F 79% 29.52 in 10.0 mi NW 13.8 mph 23.0 mph N/A Snow Light Snow
5:41 AM 12.2 °F -0.2 °F 6.8 °F 79% 29.53 in 10.0 mi NW 9.2 mph 21.9 mph N/A Snow Light Snow
6:01 AM 12.2 °F -3.1 °F 6.8 °F 79% 29.53 in 10.0 mi NW 13.8 mph 20.7 mph N/A   Overcast
6:22 AM 12.2 °F -1.8 °F 6.8 °F 79% 29.54 in 10.0 mi NW 11.5 mph 19.6 mph N/A   Overcast
6:41 AM 10.4 °F -4.1 °F 5.0 °F 79% 29.55 in 10.0 mi NW 11.5 mph 19.6 mph N/A   Overcast
7:01 AM 10.4 °F -6.0 °F 5.0 °F 79% 29.55 in 10.0 mi NW 15.0 mph 24.2 mph N/A   Mostly Cloudy
7:21 AM 10.4 °F -2.4 °F 6.8 °F 85% 29.57 in 10.0 mi NW 9.2 mph 18.4 mph N/A   Overcast
7:41 AM 10.4 °F -5.4 °F 5.0 °F 79% 29.58 in 10.0 mi NW 13.8 mph 17.3 mph N/A Snow Light Snow
8:01 AM 10.4 °F -5.4 °F 5.0 °F 79% 29.59 in 7.0 mi NW 13.8 mph 21.9 mph N/A Snow Light Snow
8:21 AM 10.4 °F -5.4 °F 5.0 °F 79% 29.60 in 5.0 mi NW 13.8 mph 19.6 mph N/A Snow Light Snow
8:43 AM 12.2 °F -2.5 °F 6.8 °F 79% 29.60 in 7.0 mi NW 12.7 mph 20.7 mph N/A Snow Light Snow
9:01 AM 12.2 °F -1.0 °F 6.8 °F 79% 29.62 in 5.0 mi NW 10.4 mph 18.4 mph N/A Snow Light Snow
9:21 AM 12.2 °F -2.5 °F 5.0 °F 73% 29.63 in 7.0 mi NW 12.7 mph 23.0 mph N/A Snow Light Snow
9:41 AM 12.2 °F -3.7 °F 5.0 °F 73% 29.62 in 10.0 mi NW 15.0 mph 23.0 mph N/A Snow Light Snow
10:03 AM 15.8 °F 2.7 °F 6.8 °F 68% 29.64 in 10.0 mi WNW 11.5 mph 23.0 mph N/A   Scattered Clouds
10:21 AM 15.8 °F 1.4 °F 6.8 °F 68% 29.64 in 10.0 mi NW 13.8 mph 20.7 mph N/A   Scattered Clouds
10:40 AM 15.8 °F 0.9 °F 5.0 °F 62% 29.64 in 10.0 mi NW 15.0 mph 24.2 mph N/A   Clear
11:20 AM 17.6 °F 4.3 °F 6.8 °F 63% 29.64 in 10.0 mi NW 12.7 mph 23.0 mph N/A   Clear
11:41 AM 17.6 °F 3.2 °F 6.8 °F 63% 29.64 in 10.0 mi NW 15.0 mph 20.7 mph N/A   Scattered Clouds
12:01 PM 15.8 °F 0.3 °F 6.8 °F 68% 29.63 in 10.0 mi NW 16.1 mph 23.0 mph N/A   Clear
12:41 PM 17.6 °F 3.2 °F 8.6 °F 68% 29.63 in 10.0 mi NW 15.0 mph 21.9 mph N/A   Clear
1:01 PM 17.6 °F 3.2 °F 6.8 °F 63% 29.62 in 10.0 mi NW 15.0 mph 23.0 mph N/A   Clear
1:21 PM 17.6 °F 3.7 °F 6.8 °F 63% 29.62 in 10.0 mi NW 13.8 mph 20.7 mph N/A   Clear
1:41 PM 17.6 °F 2.7 °F 6.8 °F 63% 29.62 in 10.0 mi WNW 16.1 mph 24.2 mph N/A   Scattered Clouds
2:01 PM 17.6 °F 1.3 °F 6.8 °F 63% 29.62 in 10.0 mi NW 19.6 mph 26.5 mph N/A   Mostly Cloudy
2:21 PM 17.6 °F 2.2 °F 6.8 °F 63% 29.62 in 10.0 mi NW 17.3 mph 27.6 mph N/A   Overcast
2:41 PM 17.6 °F 4.3 °F 6.8 °F 63% 29.62 in 7.0 mi NNW 12.7 mph 21.9 mph N/A   Overcast
3:01 PM 17.6 °F 4.3 °F 6.8 °F 63% 29.63 in 7.0 mi NW 12.7 mph 27.6 mph N/A   Overcast
3:21 PM 15.8 °F 2.1 °F 5.0 °F 62% 29.64 in 10.0 mi NW 12.7 mph 25.3 mph N/A   Overcast
3:41 PM 15.8 °F 1.4 °F 6.8 °F 68% 29.65 in 10.0 mi NNW 13.8 mph 26.5 mph N/A   Overcast
4:01 PM 15.8 °F 0.9 °F 6.8 °F 68% 29.66 in 7.0 mi NNW 15.0 mph 27.6 mph N/A   Overcast
4:21 PM 15.8 °F -0.2 °F 6.8 °F 68% 29.66 in 7.0 mi NW 17.3 mph 33.4 mph N/A Snow Light Snow
4:41 PM 15.8 °F -0.6 °F 6.8 °F 68% 29.68 in 5.0 mi NW 18.4 mph 26.5 mph N/A Snow Light Snow
5:01 PM 12.2 °F -1.0 °F 5.0 °F 73% 29.69 in 7.0 mi NW 10.4 mph 25.3 mph N/A Snow Light Snow
5:21 PM 12.2 °F -4.3 °F 5.0 °F 73% 29.69 in 4.0 mi NW 16.1 mph 21.9 mph N/A Snow Light Snow
5:41 PM 12.2 °F -3.7 °F 6.8 °F 79% 29.70 in 7.0 mi NW 15.0 mph 31.1 mph N/A Snow Light Snow
6:01 PM 12.2 °F -0.2 °F 5.0 °F 73% 29.73 in 10.0 mi NW 9.2 mph 26.5 mph N/A Snow Light Snow
6:21 PM 10.4 °F -6.6 °F 3.2 °F 73% 29.73 in 10.0 mi NW 16.1 mph 28.8 mph N/A Snow Light Snow
6:41 PM 10.4 °F -6.0 °F 3.2 °F 73% 29.74 in 10.0 mi WNW 15.0 mph 25.3 mph N/A   Mostly Cloudy
7:01 PM 10.4 °F -4.8 °F 3.2 °F 73% 29.75 in 7.0 mi NW 12.7 mph 25.3 mph N/A Snow Light Snow
7:21 PM 10.4 °F -4.1 °F 3.2 °F 73% 29.75 in 10.0 mi NW 11.5 mph 26.5 mph N/A   Mostly Cloudy
7:41 PM 10.4 °F -8.6 °F 3.2 °F 73% 29.75 in 10.0 mi NW 20.7 mph 31.1 mph N/A Snow Light Snow
8:03 PM 12.2 °F -1.8 °F 5.0 °F 73% 29.77 in 7.0 mi NW 11.5 mph 26.5 mph N/A Snow Light Snow
8:21 PM 10.4 °F -8.6 °F 5.0 °F 79% 29.76 in 5.0 mi NW 20.7 mph 33.4 mph N/A Snow Light Snow
8:41 PM 12.2 °F -3.1 °F 5.0 °F 73% 29.77 in 4.0 mi WNW 13.8 mph 29.9 mph N/A Snow Light Snow
9:01 PM 12.2 °F -5.8 °F 5.0 °F 73% 29.79 in 5.0 mi NW 19.6 mph 35.7 mph N/A Snow Light Snow
9:21 PM 10.4 °F -7.7 °F 5.0 °F 79% 29.80 in 7.0 mi NW 18.4 mph 33.4 mph N/A Snow Light Snow
9:41 PM 10.4 °F -4.8 °F 5.0 °F 79% 29.81 in 5.0 mi NW 12.7 mph 20.7 mph N/A Snow Light Snow
10:01 PM 10.4 °F -5.4 °F 5.0 °F 79% 29.82 in 7.0 mi NW 13.8 mph 23.0 mph N/A Snow Light Snow
10:21 PM 10.4 °F -6.6 °F 6.8 °F 85% 29.82 in 5.0 mi NW 16.1 mph 21.9 mph N/A Snow Light Snow
11:01 PM 10.4 °F -3.3 °F 6.8 °F 85% 29.82 in 4.0 mi WNW 10.4 mph 23.0 mph N/A Snow Light Snow
11:21 PM 10.4 °F -4.1 °F 5.0 °F 79% 29.82 in 7.0 mi NW 11.5 mph 27.6 mph N/A Snow Light Snow
11:41 PM 10.4 °F -4.8 °F 3.2 °F 73% 29.83 in 10.0 mi NW 12.7 mph 26.5 mph N/A   Scattered Clouds